,,,PA_Meas_PMT16A,,PR_Meas_QMR101_102,,RH_Meas_QMH101,,SR_Meas_QMS101,,TA_Meas_QMH101,,GenWind,,GenWind,
date,time,status,PA,status,PR,status,RH,status,SR,status,TA,status,DirAvg,status,SpdAvg,
2010-06-21, 00:00:04,VALID,1009.79,VALID,0,VALID,96.2828,VALID,0,VALID,26.0506,VALID,128,VALID,0.386719,
2010-06-21, 00:01:04,VALID,1009.79,VALID,0,VALID,96.1989,VALID,0,VALID,26.0526,VALID,142,VALID,0.551562,
2010-06-21, 00:02:04,VALID,1009.77,VALID,0,VALID,96.3514,VALID,0,VALID,26.0526,VALID,159,VALID,0.502344,
2010-06-21, 00:03:04,VALID,1009.82,VALID,0,VALID,96.4582,VALID,0,VALID,26.0331,VALID,158,VALID,0.379297,
2010-06-21, 00:04:04,VALID,1009.78,VALID,0,VALID,96.5268,VALID,0,VALID,26.0136,VALID,158,VALID,0.425391,
2010-06-21, 00:05:04,VALID,1009.78,VALID,0,VALID,96.6564,VALID,0,VALID,26.0136,VALID,158,VALID,0,
2010-06-21, 00:06:04,VALID,1009.79,VALID,0,VALID,96.6946,VALID,0,VALID,26.0136,VALID,141,VALID,0.383984,
2010-06-21, 00:07:04,VALID,1009.77,VALID,0,VALID,96.8013,VALID,0,VALID,25.9941,VALID,129,VALID,0.120703,
2010-06-21, 00:08:04,VALID,1009.77,VALID,0,VALID,96.8242,VALID,0,VALID,25.9941,VALID,131,VALID,0.237109,
2010-06-21, 00:09:04,VALID,1009.77,VALID,0,VALID,97.0072,VALID,0,VALID,25.9746,VALID,131,VALID,0.14375,
2010-06-21, 00:10:04,VALID,1009.76,VALID,0,VALID,97.2436,VALID,0,VALID,25.9746,VALID,131,VALID,0.0894531,
2010-06-21, 00:11:04,VALID,1009.73,VALID,0,VALID,97.0911,VALID,0,VALID,25.9551,VALID,128,VALID,0.102734,
2010-06-21, 00:12:04,VALID,1009.71,VALID,0,VALID,97.1521,VALID,0,VALID,25.9531,VALID,128,VALID,0.362109,
2010-06-21, 00:13:04,VALID,1009.68,VALID,0,VALID,97.1292,VALID,0.105969,VALID,25.9551,VALID,108,VALID,0.485156,
2010-06-21, 00:14:04,VALID,1009.67,VALID,0,VALID,97.1826,VALID,0,VALID,25.9551,VALID,116,VALID,0.623047,
2010-06-21, 00:15:04,VALID,1009.66,VALID,0,VALID,96.9386,VALID,0,VALID,25.9551,VALID,109,VALID,0.698438,
2010-06-21, 00:16:04,VALID,1009.65,VALID,0,VALID,97.175,VALID,0,VALID,25.9551,VALID,109,VALID,0.411719,
2010-06-21, 00:17:04,VALID,1009.63,VALID,0,VALID,97.0301,VALID,0,VALID,25.9356,VALID,103,VALID,0.550781,
2010-06-21, 00:18:04,VALID,1009.63,VALID,0,VALID,97.0987,VALID,0,VALID,25.9356,VALID,127,VALID,0.743359,
2010-06-21, 00:19:04,VALID,1009.6,VALID,0,VALID,97.2284,VALID,0,VALID,25.9356,VALID,118,VALID,0.566797,
2010-06-21, 00:20:04,VALID,1009.55,VALID,0,VALID,97.1216,VALID,0,VALID,25.9551,VALID,118,VALID,0.578125,
2010-06-21, 00:21:04,VALID,1009.55,VALID,0,VALID,97.3427,VALID,0.105969,VALID,25.9551,VALID,118,VALID,0.328906,
2010-06-21, 00:22:04,VALID,1009.54,VALID,0,VALID,97.4114,VALID,0,VALID,25.9356,VALID,99,VALID,0.411328,
2010-06-21, 00:23:04,VALID,1009.52,VALID,0,VALID,97.48,VALID,0,VALID,25.9161,VALID,73,VALID,0.714844,
2010-06-21, 00:24:04,VALID,1009.53,VALID,0,VALID,97.5639,VALID,0,VALID,25.8966,VALID,91,VALID,0.55,
2010-06-21, 00:25:04,VALID,1009.53,VALID,0,VALID,97.8155,VALID,0,VALID,25.8576,VALID,91,VALID,0.366016,
2010-06-21, 00:26:04,VALID,1009.52,VALID,0,VALID,97.8689,VALID,0.105969,VALID,25.8576,VALID,90,VALID,0.612891,
2010-06-21, 00:27:04,VALID,1009.52,VALID,0,VALID,97.9757,VALID,0,VALID,25.7971,VALID,90,VALID,0.579687,
2010-06-21, 00:28:04,VALID,1009.55,VALID,0,VALID,98.0901,VALID,0,VALID,25.7991,VALID,103,VALID,0.925,
2010-06-21, 00:29:04,VALID,1009.55,VALID,0,VALID,98.0596,VALID,0,VALID,25.7776,VALID,97,VALID,0.644531,
2010-06-21, 00:30:04,VALID,1009.57,VALID,0,VALID,98.0443,VALID,0,VALID,25.7581,VALID,107,VALID,0.826953,
2010-06-21, 00:31:04,VALID,1009.57,VALID,0,VALID,98.1206,VALID,0,VALID,25.7796,VALID,101,VALID,0.992188,
2010-06-21, 00:32:04,VALID,1009.6,VALID,0,VALID,98.2121,VALID,0.105969,VALID,25.7581,VALID,124,VALID,0.65,
2010-06-21, 00:33:04,VALID,1009.61,VALID,0,VALID,98.3036,VALID,0,VALID,25.7581,VALID,117,VALID,0.846484,
2010-06-21, 00:34:04,VALID,1009.59,VALID,0,VALID,98.3341,VALID,0,VALID,25.7581,VALID,117,VALID,0.319141,
2010-06-21, 00:35:04,VALID,1009.58,VALID,0,VALID,98.3265,VALID,0,VALID,25.7601,VALID,133,VALID,0.763672,
2010-06-21, 00:36:04,VALID,1009.57,VALID,0,VALID,98.2883,VALID,0,VALID,25.7192,VALID,142,VALID,1.10664,
2010-06-21, 00:37:04,VALID,1009.55,VALID,0,VALID,98.3112,VALID,0,VALID,25.6997,VALID,145,VALID,1.15117,
2010-06-21, 00:38:04,VALID,1009.54,VALID,0,VALID,98.357,VALID,0,VALID,25.6802,VALID,153,VALID,0.892578,
2010-06-21, 00:39:04,VALID,1009.52,VALID,0,VALID,98.479,VALID,0,VALID,25.6821,VALID,132,VALID,0.444531,
2010-06-21, 00:40:04,VALID,1009.53,VALID,0,VALID,98.601,VALID,0,VALID,25.6431,VALID,148,VALID,0.49375,
2010-06-21, 00:41:04,VALID,1009.54,VALID,0,VALID,98.6925,VALID,0,VALID,25.6236,VALID,137,VALID,0.334375,
2010-06-21, 00:42:04,VALID,1009.55,VALID,0,VALID,98.7535,VALID,0,VALID,25.6041,VALID,118,VALID,0.348047,
2010-06-21, 00:43:04,VALID,1009.54,VALID,0,VALID,98.8221,VALID,0,VALID,25.5827,VALID,120,VALID,0.841406,
2010-06-21, 00:44:04,VALID,1009.5,VALID,0,VALID,98.7459,VALID,0,VALID,25.5846,VALID,110,VALID,0.824609,
2010-06-21, 00:45:04,VALID,1009.5,VALID,0,VALID,98.8069,VALID,0,VALID,25.5846,VALID,125,VALID,0.384375,
2010-06-21, 00:46:04,VALID,1009.46,VALID,0,VALID,98.8603,VALID,0,VALID,25.5632,VALID,130,VALID,0.714844,
2010-06-21, 00:47:04,VALID,1009.44,VALID,0,VALID,98.9365,VALID,0,VALID,25.5437,VALID,128,VALID,0.965625,
2010-06-21, 00:48:04,VALID,1009.44,VALID,0,VALID,98.9213,VALID,0,VALID,25.5456,VALID,131,VALID,0.483984,
2010-06-21, 00:49:04,VALID,1009.42,VALID,0,VALID,98.9137,VALID,0,VALID,25.5456,VALID,127,VALID,0.9875,
2010-06-21, 00:50:04,VALID,1009.42,VALID,0,VALID,98.967,VALID,0,VALID,25.5242,VALID,139,VALID,0.7625,
2010-06-21, 00:51:04,VALID,1009.4,VALID,0,VALID,98.9975,VALID,0,VALID,25.5047,VALID,138,VALID,0.593359,
2010-06-21, 00:52:04,VALID,1009.38,VALID,0,VALID,99.1043,VALID,0,VALID,25.5047,VALID,134,VALID,0.347656,
2010-06-21, 00:53:04,VALID,1009.38,VALID,0,VALID,99.1653,VALID,0,VALID,25.4852,VALID,134,VALID,0.307813,
2010-06-21, 00:54:04,VALID,1009.35,VALID,0,VALID,99.2492,VALID,0,VALID,25.4871,VALID,120,VALID,0.61875,
2010-06-21, 00:55:04,VALID,1009.34,VALID,0,VALID,99.2568,VALID,0,VALID,25.4871,VALID,124,VALID,0.443359,
2010-06-21, 00:56:04,VALID,1009.33,VALID,0,VALID,99.2949,VALID,0,VALID,25.4462,VALID,105,VALID,0.520312,
2010-06-21, 00:57:04,VALID,1009.32,VALID,0,VALID,99.3026,VALID,0,VALID,25.4462,VALID,128,VALID,0.694922,
2010-06-21, 00:58:04,VALID,1009.3,VALID,0,VALID,99.2721,VALID,0,VALID,25.4677,VALID,125,VALID,0.811719,
2010-06-21, 00:59:04,VALID,1009.3,VALID,0,VALID,99.3026,VALID,0,VALID,25.4891,VALID,111,VALID,0.558984,
2010-06-21, 01:00:04,VALID,1009.27,VALID,0,VALID,99.2949,VALID,0,VALID,25.4677,VALID,113,VALID,0.355859,
2010-06-21, 01:01:04,VALID,1009.27,VALID,0,VALID,99.3102,VALID,0,VALID,25.4677,VALID,113,VALID,0.327344,
2010-06-21, 01:02:04,VALID,1009.27,VALID,0,VALID,99.3254,VALID,0,VALID,25.4462,VALID,76,VALID,0.185547,
2010-06-21, 01:03:04,VALID,1009.27,VALID,0,VALID,99.2721,VALID,0,VALID,25.4677,VALID,85,VALID,0.553516,
2010-06-21, 01:04:04,VALID,1009.25,VALID,0,VALID,99.3026,VALID,0,VALID,25.4677,VALID,107,VALID,0.394531,
2010-06-21, 01:05:04,VALID,1009.25,VALID,0,VALID,99.2263,VALID,0,VALID,25.4677,VALID,104,VALID,0.604688,
2010-06-21, 01:06:04,VALID,1009.26,VALID,0,VALID,99.1958,VALID,0,VALID,25.4267,VALID,110,VALID,0.198437,
2010-06-21, 01:07:04,VALID,1009.23,VALID,0,VALID,99.2034,VALID,0,VALID,25.4677,VALID,110,VALID,0.284766,
2010-06-21, 01:08:04,VALID,1009.22,VALID,0,VALID,99.2187,VALID,0,VALID,25.4287,VALID,156,VALID,0.520312,
2010-06-21, 01:09:04,VALID,1009.2,VALID,0,VALID,99.1577,VALID,0,VALID,25.4287,VALID,160,VALID,0.49375,
2010-06-21, 01:10:04,VALID,1009.2,VALID,0,VALID,99.2034,VALID,0,VALID,25.3897,VALID,160,VALID,0.603516,
2010-06-21, 01:11:04,VALID,1009.19,VALID,0,VALID,99.2568,VALID,0,VALID,25.3897,VALID,160,VALID,0.451953,
2010-06-21, 01:12:04,VALID,1009.16,VALID,0,VALID,99.3102,VALID,0,VALID,25.3702,VALID,160,VALID,0.469141,
2010-06-21, 01:13:04,VALID,1009.16,VALID,0,VALID,99.3483,VALID,0,VALID,25.3702,VALID,160,VALID,0.466797,
2010-06-21, 01:14:04,VALID,1009.14,VALID,0,VALID,99.3788,VALID,0,VALID,25.3293,VALID,159,VALID,0.515625,
2010-06-21, 01:15:04,VALID,1009.13,VALID,0,VALID,99.4093,VALID,0,VALID,25.3098,VALID,164,VALID,0.282031,
2010-06-21, 01:16:04,VALID,1009.15,VALID,0,VALID,99.478,VALID,0.105969,VALID,25.3312,VALID,164,VALID,0.270703,
2010-06-21, 01:17:04,VALID,1009.16,VALID,0,VALID,99.5542,VALID,0.105969,VALID,25.2903,VALID,164,VALID,0.00117188,
2010-06-21, 01:18:04,VALID,1009.15,VALID,0,VALID,99.6228,VALID,0.105969,VALID,25.2903,VALID,164,VALID,0.282422,
2010-06-21, 01:19:04,VALID,1009.13,VALID,0,VALID,99.6915,VALID,0.105969,VALID,25.3117,VALID,164,VALID,0,
2010-06-21, 01:20:04,VALID,1009.13,VALID,0,VALID,99.7449,VALID,0,VALID,25.2708,VALID,164,VALID,0,
2010-06-21, 01:21:04,VALID,1009.11,VALID,0,VALID,99.844,VALID,0,VALID,25.2922,VALID,164,VALID,0,
2010-06-21, 01:22:04,VALID,1009.11,VALID,0,VALID,99.8669,VALID,0.105969,VALID,25.2513,VALID,164,VALID,0,
2010-06-21, 01:23:04,VALID,1009.08,VALID,0,VALID,99.9279,VALID,0,VALID,25.2727,VALID,164,VALID,0,
2010-06-21, 01:24:04,VALID,1009.1,VALID,0,VALID,100.065,VALID,0,VALID,25.2727,VALID,164,VALID,0,
2010-06-21, 01:25:04,VALID,1009.06,VALID,0,VALID,100.096,VALID,0,VALID,25.2532,VALID,164,VALID,0,
2010-06-21, 01:26:04,VALID,1009.04,VALID,0,VALID,100.149,VALID,0,VALID,25.2532,VALID,164,VALID,0,
2010-06-21, 01:27:04,VALID,1009.05,VALID,0,VALID,100.218,VALID,0.105969,VALID,25.2337,VALID,164,VALID,0,
2010-06-21, 01:28:04,VALID,1009.03,VALID,0,VALID,100.279,VALID,0,VALID,25.2337,VALID,164,VALID,0,
2010-06-21, 01:29:04,VALID,1009.01,VALID,0,VALID,100.324,VALID,0,VALID,25.2318,VALID,164,VALID,0,
2010-06-21, 01:30:04,VALID,1009,VALID,0,VALID,100.34,VALID,0.105969,VALID,25.2318,VALID,164,VALID,0.278516,
2010-06-21, 01:31:04,VALID,1009,VALID,0,VALID,100.309,VALID,0.105969,VALID,25.2123,VALID,141,VALID,0.221094,
2010-06-21, 01:32:04,VALID,1008.95,VALID,0,VALID,100.302,VALID,0,VALID,25.2337,VALID,141,VALID,0.221484,
2010-06-21, 01:33:04,VALID,1008.95,VALID,0,VALID,100.317,VALID,0.105969,VALID,25.2123,VALID,141,VALID,0.289844,
2010-06-21, 01:34:04,VALID,1008.95,VALID,0,VALID,100.263,VALID,0.105969,VALID,25.1928,VALID,141,VALID,0.199609,
2010-06-21, 01:35:04,VALID,1008.97,VALID,0,VALID,100.225,VALID,0.105969,VALID,25.2123,VALID,141,VALID,0.186328,
2010-06-21, 01:36:04,VALID,1008.91,VALID,0,VALID,100.225,VALID,0.105969,VALID,25.2123,VALID,141,VALID,0.08125,
2010-06-21, 01:37:04,VALID,1008.94,VALID,0,VALID,100.225,VALID,0,VALID,25.2123,VALID,141,VALID,0.0867188,
2010-06-21, 01:38:04,VALID,1008.93,VALID,0,VALID,100.271,VALID,0.105969,VALID,25.2318,VALID,141,VALID,0,
2010-06-21, 01:39:04,VALID,1008.92,VALID,0,VALID,100.279,VALID,0,VALID,25.2337,VALID,162,VALID,0,
2010-06-21, 01:40:04,VALID,1008.88,VALID,0,VALID,100.263,VALID,0.105969,VALID,25.2337,VALID,162,VALID,0,
2010-06-21, 01:41:04,VALID,1008.9,VALID,0,VALID,100.279,VALID,0.105969,VALID,25.2337,VALID,162,VALID,0,
2010-06-21, 01:42:04,VALID,1008.86,VALID,0,VALID,100.317,VALID,0.105969,VALID,25.2337,VALID,162,VALID,0,
2010-06-21, 01:43:04,VALID,1008.86,VALID,0,VALID,100.355,VALID,0.105969,VALID,25.2142,VALID,162,VALID,0,
2010-06-21, 01:44:04,VALID,1008.85,VALID,0,VALID,100.317,VALID,0.105969,VALID,25.1928,VALID,162,VALID,0,
2010-06-21, 01:45:04,VALID,1008.85,VALID,0,VALID,100.286,VALID,0.105969,VALID,25.2142,VALID,162,VALID,0,
2010-06-21, 01:46:04,VALID,1008.83,VALID,0,VALID,100.309,VALID,0,VALID,25.1928,VALID,162,VALID,0,
2010-06-21, 01:47:04,VALID,1008.82,VALID,0,VALID,100.363,VALID,0.105969,VALID,25.2123,VALID,175,VALID,0,
2010-06-21, 01:48:04,VALID,1008.82,VALID,0,VALID,100.363,VALID,0.105969,VALID,25.1928,VALID,191,VALID,0.292969,
2010-06-21, 01:49:04,VALID,1008.79,VALID,0,VALID,100.347,VALID,0.105969,VALID,25.2142,VALID,191,VALID,0.503906,
2010-06-21, 01:50:04,VALID,1008.76,VALID,0,VALID,100.363,VALID,0.105969,VALID,25.1928,VALID,192,VALID,0.788281,
2010-06-21, 01:51:04,VALID,1008.77,VALID,0,VALID,100.317,VALID,0.105969,VALID,25.1928,VALID,195,VALID,0.538281,
2010-06-21, 01:52:04,VALID,1008.76,VALID,0,VALID,100.324,VALID,0.105969,VALID,25.1928,VALID,188,VALID,0.433594,
2010-06-21, 01:53:04,VALID,1008.75,VALID,0,VALID,100.294,VALID,0.105969,VALID,25.1733,VALID,182,VALID,0.578906,
2010-06-21, 01:54:04,VALID,1008.74,VALID,0,VALID,100.233,VALID,0,VALID,25.1538,VALID,147,VALID,0.782422,
2010-06-21, 01:55:04,VALID,1008.76,VALID,0,VALID,100.225,VALID,0.105969,VALID,25.1538,VALID,156,VALID,0.653125,
2010-06-21, 01:56:04,VALID,1008.75,VALID,0,VALID,100.218,VALID,0.105969,VALID,25.1557,VALID,160,VALID,0.288672,
2010-06-21, 01:57:04,VALID,1008.73,VALID,0,VALID,100.248,VALID,0.105969,VALID,25.1343,VALID,160,VALID,0.330469,
2010-06-21, 01:58:04,VALID,1008.73,VALID,0,VALID,100.294,VALID,0.105969,VALID,25.1148,VALID,162,VALID,0.71875,
2010-06-21, 01:59:04,VALID,1008.7,VALID,0,VALID,100.332,VALID,0,VALID,25.1343,VALID,159,VALID,0.382813,
2010-06-21, 02:00:04,VALID,1008.69,VALID,0,VALID,100.271,VALID,0.105969,VALID,25.1343,VALID,156,VALID,0.679688,
2010-06-21, 02:01:04,VALID,1008.68,VALID,0,VALID,100.21,VALID,0,VALID,25.1362,VALID,172,VALID,1.06055,
2010-06-21, 02:02:04,VALID,1008.64,VALID,0,VALID,100.172,VALID,0.105969,VALID,25.1362,VALID,170,VALID,0.601172,
2010-06-21, 02:03:04,VALID,1008.65,VALID,0,VALID,100.218,VALID,0.105969,VALID,25.1148,VALID,129,VALID,0.308203,
2010-06-21, 02:04:04,VALID,1008.62,VALID,0,VALID,100.233,VALID,0.105969,VALID,25.1148,VALID,138,VALID,0.605469,
2010-06-21, 02:05:04,VALID,1008.63,VALID,0,VALID,100.34,VALID,0.105969,VALID,25.1557,VALID,135,VALID,0.526563,
2010-06-21, 02:06:04,VALID,1008.64,VALID,0,VALID,100.355,VALID,0.105969,VALID,25.0954,VALID,144,VALID,1.1418,
2010-06-21, 02:07:04,VALID,1008.61,VALID,0,VALID,100.202,VALID,0,VALID,25.1557,VALID,152,VALID,0.694922,
2010-06-21, 02:08:04,VALID,1008.61,VALID,0,VALID,100.119,VALID,0.105969,VALID,25.1538,VALID,130,VALID,0.798047,
2010-06-21, 02:09:04,VALID,1008.63,VALID,0,VALID,100.08,VALID,0.105969,VALID,25.1752,VALID,129,VALID,0.320313,
2010-06-21, 02:10:04,VALID,1008.61,VALID,0,VALID,100.096,VALID,0.105969,VALID,25.1752,VALID,122,VALID,0.385547,
2010-06-21, 02:11:04,VALID,1008.61,VALID,0,VALID,100.119,VALID,0.105969,VALID,25.1538,VALID,123,VALID,0.449609,
2010-06-21, 02:12:04,VALID,1008.61,VALID,0,VALID,100.096,VALID,0.105969,VALID,25.1752,VALID,101,VALID,0.186719,
2010-06-21, 02:13:04,VALID,1008.64,VALID,0,VALID,100.035,VALID,0.105969,VALID,25.1538,VALID,101,VALID,0.538672,
2010-06-21, 02:14:04,VALID,1008.61,VALID,0,VALID,99.966,VALID,0.105969,VALID,25.1343,VALID,115,VALID,0.791016,
2010-06-21, 02:15:04,VALID,1008.61,VALID,0,VALID,99.905,VALID,0.105969,VALID,25.1343,VALID,131,VALID,0.255859,
2010-06-21, 02:16:04,VALID,1008.61,VALID,0,VALID,99.905,VALID,0.105969,VALID,25.1343,VALID,130,VALID,0.596484,
2010-06-21, 02:17:04,VALID,1008.6,VALID,0,VALID,99.8516,VALID,0.105969,VALID,25.1557,VALID,137,VALID,0.8,
2010-06-21, 02:18:04,VALID,1008.59,VALID,0,VALID,99.8135,VALID,0.105969,VALID,25.1557,VALID,127,VALID,0.326953,
2010-06-21, 02:19:04,VALID,1008.63,VALID,0,VALID,99.844,VALID,0.105969,VALID,25.1362,VALID,160,VALID,0.386719,
2010-06-21, 02:20:04,VALID,1008.64,VALID,0,VALID,99.8592,VALID,0.105969,VALID,25.0954,VALID,170,VALID,0.742578,
2010-06-21, 02:21:04,VALID,1008.61,VALID,0,VALID,99.8821,VALID,0.105969,VALID,25.0954,VALID,196,VALID,0.455078,
2010-06-21, 02:22:04,VALID,1008.66,VALID,0,VALID,99.9508,VALID,0.105969,VALID,25.0759,VALID,182,VALID,0.646484,
2010-06-21, 02:23:04,VALID,1008.66,VALID,0,VALID,99.9736,VALID,0.105969,VALID,25.0564,VALID,179,VALID,0.760156,
2010-06-21, 02:24:04,VALID,1008.67,VALID,0,VALID,100.05,VALID,0.105969,VALID,25.0564,VALID,165,VALID,0.373047,
2010-06-21, 02:25:04,VALID,1008.68,VALID,0,VALID,100.088,VALID,0.105969,VALID,25.0369,VALID,165,VALID,0.290625,
2010-06-21, 02:26:04,VALID,1008.66,VALID,0,VALID,100.187,VALID,0.105969,VALID,25.0174,VALID,148,VALID,0.457031,
2010-06-21, 02:27:04,VALID,1008.71,VALID,0,VALID,100.317,VALID,0.105969,VALID,24.9979,VALID,129,VALID,0.753125,
2010-06-21, 02:28:04,VALID,1008.69,VALID,0,VALID,100.424,VALID,0.105969,VALID,24.9979,VALID,151,VALID,0.698828,
2010-06-21, 02:29:04,VALID,1008.71,VALID,0,VALID,100.469,VALID,0.105969,VALID,24.9979,VALID,151,VALID,0.273047,
2010-06-21, 02:30:04,VALID,1008.72,VALID,0,VALID,100.507,VALID,0.105969,VALID,24.9589,VALID,136,VALID,0.286328,
2010-06-21, 02:31:04,VALID,1008.71,VALID,0,VALID,100.568,VALID,0.105969,VALID,24.9803,VALID,137,VALID,0.467969,
2010-06-21, 02:32:04,VALID,1008.71,VALID,0,VALID,100.622,VALID,0,VALID,24.9394,VALID,137,VALID,0,
2010-06-21, 02:33:04,VALID,1008.69,VALID,0,VALID,100.69,VALID,0.105969,VALID,24.9394,VALID,137,VALID,0.170312,
2010-06-21, 02:34:04,VALID,1008.71,VALID,0,VALID,100.698,VALID,0.105969,VALID,24.9803,VALID,137,VALID,0,
2010-06-21, 02:35:04,VALID,1008.69,VALID,0,VALID,100.713,VALID,0.105969,VALID,24.9608,VALID,137,VALID,0,
2010-06-21, 02:36:04,VALID,1008.7,VALID,0,VALID,100.736,VALID,0.105969,VALID,24.9608,VALID,181,VALID,0.203125,
2010-06-21, 02:37:04,VALID,1008.69,VALID,0,VALID,100.774,VALID,0,VALID,24.9394,VALID,181,VALID,0,
2010-06-21, 02:38:04,VALID,1008.72,VALID,0,VALID,100.751,VALID,0.105969,VALID,24.9394,VALID,181,VALID,0,
2010-06-21, 02:39:04,VALID,1008.74,VALID,0,VALID,100.759,VALID,0,VALID,24.9394,VALID,181,VALID,0,
2010-06-21, 02:40:04,VALID,1008.73,VALID,0,VALID,100.744,VALID,0.105969,VALID,24.9199,VALID,180,VALID,0.00351562,
2010-06-21, 02:41:04,VALID,1008.76,VALID,0,VALID,100.706,VALID,0.105969,VALID,24.9413,VALID,181,VALID,0.000390625,
2010-06-21, 02:42:04,VALID,1008.75,VALID,0,VALID,100.69,VALID,0.105969,VALID,24.9199,VALID,180,VALID,0.507422,
2010-06-21, 02:43:04,VALID,1008.76,VALID,0,VALID,100.637,VALID,0.105969,VALID,24.9004,VALID,180,VALID,0.0628906,
2010-06-21, 02:44:04,VALID,1008.75,VALID,0,VALID,100.591,VALID,0,VALID,24.9413,VALID,180,VALID,0,
2010-06-21, 02:45:04,VALID,1008.74,VALID,0,VALID,100.637,VALID,0.105969,VALID,24.9199,VALID,180,VALID,0,
2010-06-21, 02:46:04,VALID,1008.76,VALID,0,VALID,100.652,VALID,0.105969,VALID,24.9004,VALID,181,VALID,0,
2010-06-21, 02:47:04,VALID,1008.75,VALID,0,VALID,100.66,VALID,0.105969,VALID,24.8809,VALID,180,VALID,0,
2010-06-21, 02:48:04,VALID,1008.75,VALID,0,VALID,100.66,VALID,0.105969,VALID,24.8809,VALID,180,VALID,0,
2010-06-21, 02:49:04,VALID,1008.77,VALID,0,VALID,100.736,VALID,0.105969,VALID,24.8809,VALID,180,VALID,0.155859,
2010-06-21, 02:50:04,VALID,1008.77,VALID,0,VALID,100.828,VALID,0.105969,VALID,24.8615,VALID,180,VALID,0.164453,
2010-06-21, 02:51:04,VALID,1008.74,VALID,0,VALID,100.904,VALID,0,VALID,24.8225,VALID,180,VALID,0.0449219,
2010-06-21, 02:52:04,VALID,1008.77,VALID,0,VALID,100.988,VALID,0.105969,VALID,24.8438,VALID,180,VALID,0,
2010-06-21, 02:53:04,VALID,1008.75,VALID,0,VALID,101.087,VALID,0.105969,VALID,24.7835,VALID,180,VALID,0,
2010-06-21, 02:54:04,VALID,1008.77,VALID,0,VALID,101.194,VALID,0.105969,VALID,24.764,VALID,180,VALID,0,
2010-06-21, 02:55:04,VALID,1008.74,VALID,0,VALID,101.262,VALID,0.105969,VALID,24.7445,VALID,180,VALID,0,
2010-06-21, 02:56:04,VALID,1008.72,VALID,0,VALID,101.339,VALID,0.105969,VALID,24.725,VALID,180,VALID,0,
2010-06-21, 02:57:04,VALID,1008.72,VALID,0,VALID,101.407,VALID,0.105969,VALID,24.7055,VALID,180,VALID,0,
2010-06-21, 02:58:04,VALID,1008.76,VALID,0,VALID,101.423,VALID,0.105969,VALID,24.7074,VALID,180,VALID,0,
2010-06-21, 02:59:04,VALID,1008.75,VALID,0,VALID,101.506,VALID,0.105969,VALID,24.686,VALID,180,VALID,0,
2010-06-21, 03:00:04,VALID,1008.77,VALID,0,VALID,101.575,VALID,0.105969,VALID,24.7074,VALID,180,VALID,0,
2010-06-21, 03:01:04,VALID,1008.75,VALID,0,VALID,101.628,VALID,0.105969,VALID,24.6666,VALID,180,VALID,0.148047,
2010-06-21, 03:02:04,VALID,1008.76,VALID,0,VALID,101.636,VALID,0,VALID,24.6666,VALID,180,VALID,0,
2010-06-21, 03:03:04,VALID,1008.75,VALID,0,VALID,101.651,VALID,0.105969,VALID,24.6666,VALID,180,VALID,0,
2010-06-21, 03:04:04,VALID,1008.76,VALID,0,VALID,101.636,VALID,0,VALID,24.686,VALID,180,VALID,0,
2010-06-21, 03:05:04,VALID,1008.76,VALID,0,VALID,101.621,VALID,0.105969,VALID,24.7074,VALID,180,VALID,0,
2010-06-21, 03:06:04,VALID,1008.76,VALID,0,VALID,101.628,VALID,0.105969,VALID,24.7055,VALID,180,VALID,0,
2010-06-21, 03:07:04,VALID,1008.77,VALID,0,VALID,101.613,VALID,0.105969,VALID,24.7055,VALID,180,VALID,0,
2010-06-21, 03:08:04,VALID,1008.76,VALID,0,VALID,101.552,VALID,0.105969,VALID,24.7055,VALID,180,VALID,0,
2010-06-21, 03:09:04,VALID,1008.75,VALID,0,VALID,101.537,VALID,0.105969,VALID,24.7055,VALID,180,VALID,0,
2010-06-21, 03:10:04,VALID,1008.74,VALID,0,VALID,101.499,VALID,0.105969,VALID,24.7269,VALID,180,VALID,0,
2010-06-21, 03:11:04,VALID,1008.75,VALID,0,VALID,101.438,VALID,0.105969,VALID,24.7055,VALID,180,VALID,0,
2010-06-21, 03:12:04,VALID,1008.75,VALID,0,VALID,101.43,VALID,0.105969,VALID,24.686,VALID,180,VALID,0,
2010-06-21, 03:13:04,VALID,1008.74,VALID,0,VALID,101.415,VALID,0.105969,VALID,24.7074,VALID,180,VALID,0,
2010-06-21, 03:14:04,VALID,1008.73,VALID,0,VALID,101.415,VALID,0.105969,VALID,24.686,VALID,180,VALID,0,
2010-06-21, 03:15:04,VALID,1008.73,VALID,0,VALID,101.438,VALID,0.105969,VALID,24.686,VALID,180,VALID,0,
2010-06-21, 03:16:04,VALID,1008.72,VALID,0,VALID,101.468,VALID,0.105969,VALID,24.686,VALID,180,VALID,0,
2010-06-21, 03:17:04,VALID,1008.74,VALID,0,VALID,101.499,VALID,0.105969,VALID,24.686,VALID,180,VALID,0.170703,
2010-06-21, 03:18:04,VALID,1008.75,VALID,0,VALID,101.537,VALID,0,VALID,24.6879,VALID,149,VALID,0.401172,
2010-06-21, 03:19:04,VALID,1008.76,VALID,0,VALID,101.499,VALID,0,VALID,24.6879,VALID,149,VALID,0.285937,
2010-06-21, 03:20:04,VALID,1008.74,VALID,0,VALID,101.438,VALID,0,VALID,24.6703,VALID,149,VALID,0.581641,
2010-06-21, 03:21:04,VALID,1008.75,VALID,0,VALID,101.362,VALID,0,VALID,24.6703,VALID,151,VALID,0.367969,
2010-06-21, 03:22:04,VALID,1008.73,VALID,0,VALID,101.308,VALID,0,VALID,24.6489,VALID,151,VALID,0.135156,
2010-06-21, 03:23:04,VALID,1008.72,VALID,0,VALID,101.224,VALID,0,VALID,24.6294,VALID,151,VALID,0,
2010-06-21, 03:24:04,VALID,1008.73,VALID,0,VALID,101.171,VALID,0,VALID,24.6313,VALID,151,VALID,0,
2010-06-21, 03:25:04,VALID,1008.7,VALID,0,VALID,101.232,VALID,0,VALID,24.6313,VALID,151,VALID,0,
2010-06-21, 03:26:04,VALID,1008.7,VALID,0,VALID,101.27,VALID,0,VALID,24.6099,VALID,151,VALID,0,
2010-06-21, 03:27:04,VALID,1008.67,VALID,0,VALID,101.331,VALID,0,VALID,24.6313,VALID,151,VALID,0,
2010-06-21, 03:28:04,VALID,1008.65,VALID,0,VALID,101.369,VALID,0,VALID,24.5905,VALID,151,VALID,0,
2010-06-21, 03:29:04,VALID,1008.6,VALID,0,VALID,101.415,VALID,0,VALID,24.5923,VALID,151,VALID,0.119531,
2010-06-21, 03:30:04,VALID,1008.61,VALID,0,VALID,101.445,VALID,0,VALID,24.571,VALID,151,VALID,0.242188,
2010-06-21, 03:31:04,VALID,1008.61,VALID,0,VALID,101.461,VALID,0,VALID,24.5923,VALID,149,VALID,0.272266,
2010-06-21, 03:32:04,VALID,1008.62,VALID,0,VALID,101.491,VALID,0,VALID,24.571,VALID,149,VALID,0.0300781,
2010-06-21, 03:33:04,VALID,1008.61,VALID,0,VALID,101.484,VALID,0,VALID,24.5691,VALID,128,VALID,0.498437,
2010-06-21, 03:34:04,VALID,1008.63,VALID,0,VALID,101.438,VALID,0.105969,VALID,24.5691,VALID,126,VALID,0.5125,
2010-06-21, 03:35:04,VALID,1008.64,VALID,0,VALID,101.392,VALID,0.105969,VALID,24.5905,VALID,118,VALID,0.491016,
2010-06-21, 03:36:04,VALID,1008.64,VALID,0,VALID,101.392,VALID,0.105969,VALID,24.6294,VALID,118,VALID,0.417188,
2010-06-21, 03:37:04,VALID,1008.63,VALID,0,VALID,101.354,VALID,0,VALID,24.6489,VALID,118,VALID,0.402344,
2010-06-21, 03:38:04,VALID,1008.64,VALID,0,VALID,101.262,VALID,0,VALID,24.6489,VALID,146,VALID,0.521484,
2010-06-21, 03:39:04,VALID,1008.62,VALID,0,VALID,101.171,VALID,0,VALID,24.6294,VALID,150,VALID,0.701563,
2010-06-21, 03:40:04,VALID,1008.61,VALID,0,VALID,101.034,VALID,0,VALID,24.6294,VALID,156,VALID,0.305469,
2010-06-21, 03:41:04,VALID,1008.6,VALID,0,VALID,101.079,VALID,0,VALID,24.6099,VALID,149,VALID,0.337891,